AEHF-2 (USA 235)

Last updated on Tue Jul 01 2025 00:02:45 GMT+0000 (Coordinated Universal Time)

1 38254U 12019A 25181.42182865 -.00000138 00000+0 00000+0 0 9999 2 38254 5.8347 59.8793 0002838 41.9468 312.2834 1.00270953 3457
UTC large
Height (km)
Speed (km/s)
/
Latitude / Longitude
Inclination (degrees)
Orbital Period (minutes)
Azimuth
Elevation
Range (km)
Doppler Factor

Next 0 passes for location: London (51.5072 / 0.1276)

Sorry there are no passes over London.